Location: Tom
(33.0437°N, 96.9452°W)
Time: 22:40:04
(UTC-06:00)

N. Korean satellite - Pass Details

Date: 24 January 2019
Orbit: 456 x 510 km, 97.2° (Epoch: 21 February)

Event Time Altitude Azimuth Distance (km) Brightness Sun altitude
Rises 18:46:44 0° 200° (SSW) 2,567 10.8 -11.6°
Reaches altitude 10° 18:49:15 10° 218° (SW) 1,698 10.2 -12.1°
Maximum altitude 18:51:54 19° 265° (W) 1,253 9.8 -12.7°
Drops below altitude 10° 18:54:35 10° 312° (NW) 1,723 9.8 -13.2°
Sets 18:57:10 0° 330° (NNW) 2,618 10.5 -13.7°
